Regional Weather Roundup
Issued by NWS

Home | Current Version | Previous Version | Text Only | Print | Product List | Glossary Off
Versions: 1 2 3 4 5 6 7 8 9 10 11 12 13 14 15 16 17 18 19 20 21 22 23 24 25 26 27 28 29 30 31 32 33 34 35 36 37 38 39 40 41 42 43 44 45 46 47 48 49 50

000
ASUS43 KMKX 181600
RWRWI

WISCONSIN REGIONAL WEATHER ROUNDUP
NATIONAL WEATHER SERVICE MILWAUKEE/SULLIVAN WI
1100 AM CDT SAT APR 18 2015

NOTE: "FAIR" INDICATES FEW OR NO CLOUDS BELOW 12,000 FEET WITH NO
SIGNIFICANT WEATHER AND/OR OBSTRUCTIONS TO VISIBILITY.

WIZ001-002-006>008-014>016-023>028-181700-
NORTHWEST WISCONSIN

CITY           SKY/WX    TMP DP  RH WIND       PRES   REMARKS
SUPERIOR ARPT  SUNNY     42  34  75 NE17G25   30.23S
ASHLAND        SUNNY     50  36  58 N16       30.23F
HAYWARD        SUNNY     54  28  36 E15G21    30.15F
SIREN          SUNNY     55  31  39 E9        30.13F
CUMBERLAND     SUNNY     54  30  40 E7        30.12F
RICE LAKE      SUNNY     56  30  36 E8        30.14F
CHETEK         SUNNY     55  33  43 NE3G16    30.13S
LADYSMITH      SUNNY     57  30  36 E9G22     30.16S
EAU CLAIRE     NOT AVBL
MENOMONIE      MOSUNNY   58  30  34 E13       30.11F
NEW RICHMOND   MOSUNNY   60  29  31 E8        30.10F
OSCEOLA        MOSUNNY   59  32  35 E9        30.13F
$$

WIZ003>005-009-010-017-018-181700-
NORTH CENTRAL WISCONSIN

CITY           SKY/WX    TMP DP  RH WIND       PRES   REMARKS
MANITOWISH WTR SUNNY     49  30  47 E8        30.20R
ARBOR VITAE      N/A     52  28  39 E10G17    30.19S HAZE
WOODRUFF         N/A     52  28  39 E10G17    30.19S HAZE
RHINELANDER    SUNNY     53  28  38 E13G22    30.18F
EAGLE RIVER    SUNNY     50  28  42 E10       30.20S
LAND O LAKES   SUNNY     49  30  48 E7        30.22S
PHILLIPS       SUNNY     52  29  41 E9        30.16S
TOMAHAWK       SUNNY     54  29  39 NE7       30.18S
MEDFORD        SUNNY     54  32  43 E14       30.14S
MERRILL        SUNNY     55  30  38 E13G18    30.16S
$$

WIZ029-030-035-036-043>047-181700-
CENTRAL WISCONSIN

CITY           SKY/WX    TMP DP  RH WIND       PRES   REMARKS
WAUSAU         SUNNY     57  32  38 E12       30.15R
MOSINEE        SUNNY     55  30  38 NE13G21   30.17R
MARSHFIELD     SUNNY     58  31  35 E16       30.14S
STEVENS POINT  SUNNY     53  32  45 E9G20     30.17R
WAUPACA        SUNNY     56  33  42 NE10      30.18S
WAUTOMA        NOT AVBL
WISC RAPIDS    SUNNY     58  30  34 E13       30.16S
CAMP DOUGLAS   NOT AVBL
$$

WIZ011>013-019>022-031-037>040-048>050-181700-
NORTHEAST WISCONSIN

CITY           SKY/WX    TMP DP  RH WIND       PRES   REMARKS
ANTIGO         SUNNY     53  31  42 E15       30.18S
SHAWANO        SUNNY     54  35  47 E12       30.21R
OCONTO         SUNNY     50  36  58 E13       30.21S
STURGEON BAY   SUNNY     52  30  43 NE13G21   30.23S
GREEN BAY      SUNNY     49  39  68 NE17      30.21R
MANITOWOC      NOT AVBL
APPLETON       MOSUNNY   50  34  53 NE17G29   30.20R
CLINTONVILLE   SUNNY     54  32  43 E12G20    30.20R
OSHKOSH        MOSUNNY   53  36  52 NE14      30.17S
$$

WIZ032>034-041-042-053>061-181700-
SOUTHWEST WISCONSIN

CITY           SKY/WX    TMP DP  RH WIND       PRES   REMARKS
LA CROSSE      MOSUNNY   66  34  30 E9        30.07F
SPARTA         PTSUNNY   63  30  28 NE14G20   30.11S
VIROQUA        MOSUNNY   63  33  32 E15G22    30.09S
BOSCOBEL       MOSUNNY   68  37  32 VRB7G20   30.07F
PRAIRIE DU CHI SUNNY     69  35  28 E12       30.04F
PLATTEVILLE    SUNNY     68  41  36 E18       30.06S
$$

WIZ056-057-062-063-064-067-068-181700-
SOUTH CENTRAL WISCONSIN

CITY           SKY/WX    TMP DP  RH WIND       PRES   REMARKS
REEDSBURG      MOSUNNY   58  35  42 E14G20    30.12S
BARABOO/DELLS  MOSUNNY   57  32  39 E16G24    30.13R
LONE ROCK      NOT AVBL
MINERAL POINT  SUNNY     66  37  34 NE18      30.07F
MADISON        PTSUNNY   62  35  36 E16G24    30.12S
MIDDLETON      SUNNY     63  35  34 E9G16     30.12S
WATERTOWN      SUNNY     59  36  42 E16       30.13R
MONROE         MOSUNNY   64  39  39 NE17      30.08S
JANESVILLE     SUNNY     66  32  28 E17G29    30.10R
$$

WIZ051-052-058>065-066-070>072-181700-
SOUTHEAST WISCONSIN

CITY           SKY/WX    TMP DP  RH WIND       PRES   REMARKS
MILWAUKEE      MOSUNNY   45  36  70 N22G38    30.16R
WAUKESHA       NOT AVBL
MILWAUKEE/TIMM SUNNY     50  34  53 NE20G26   30.17R
RACINE         SUNNY     46  36  68 N23G33    30.15R
BURLINGTON     SUNNY     56  32  39 NE13G23   30.13R
KENOSHA        SUNNY     55  36  48 N18G25    30.13R
FOND DU LAC    MOSUNNY   58  36  43 NE17      30.16S
SHEBOYGAN      SUNNY     48  35  60 NE23G30   30.18R
WEST BEND      MOSUNNY   52  34  50 NE18G29   30.16R
JUNEAU         MOSUNNY   57  35  44 NE12G18   30.15R
$$

LSZ147-162-181700-
LAKE SUPERIOR

STATION/POSITION TIME  TEMP    WIND        PRES    WAVE
                       AIR SEA DIR/SP/G            HT/PER
                 (UTC) (F)     (DEG/KT/KT) (MB)    (FT/S)
DEVILS ISLAND    1500   37      60/ 12/ 13 1026.0R
PORT WING        1500   44      30/ 12/ 16 1024.0S
SAXON HARBOR     1540   40      40/ 13/ 16 1023.4S
$$

LMZ867-665-643>646-181700-
LAKE MICHIGAN

STATION/POSITION TIME  TEMP    WIND        PRES    WAVE
                       AIR SEA DIR/SP/G            HT/PER
                 (UTC) (F)     (DEG/KT/KT) (MB)    (FT/S)
CHAMBERS ISLAND  1500   40      20/ 10/ 13 1023.7R
NORTHPORT PIER   1500   39     310/  8/ 11 1023.4R
SISTER BAY       1532   48     360/ 12/ 15   N/A
KEWAUNEE LAKESHO 1500   43      40/ 18/ 22 1022.0R
SHEBOYGAN LAKESH 1500   40      10/ 23/ 26 1022.4R
PORT WASHINGTON  1523   47      30/ 21/ 25 1022.0R
MILWAUKEE LAKESH 1500   42      10/ 22/ 31   N/A
KENOSHA   LAKESH 1500   44      10/ 24/ 30 1019.3R
$$

TC  - TEMPERATURE IN CELSIUS
VSB - VISIBILITY IN STATUTE MILES
WCI - WIND CHILL INDEX
HX  - HEAT INDEX



USA.gov is the U.S. government's official web portal to all federal, state and local government web resources and services.